Cloud_Cover
100 100 100 93 93 100 100 100 5 5 5 3 4 5 15 23 51 5 5 1 0 0 0 0 0 0 0 0 6 10 100 100 100 100 100 91 88 34 0 3 2 21 0
100 100 100 100 100 100 100 58 5 6 79 60 5 5 80 100 97 5 35 3 0 0 0 0 0 5 24 5 5 56 100 100 100 100 1 11 0 5 53 0 0 0 0
100 88 94 100 100 100 72 71 100 88 100 88 43 61 100 100 100 46 5 3 0 0 0 0 2 5 5 5 5 96 100 100 96 100 98 100 94 60 0 0 0 0 0
100 90 100 100 100 100 100 100 50 98 100 40 98 100 100 100 100 19 3 0 1 0 0 2 24 14 7 5 6 98 100 54 73 100 87 90 24 4 2 24 2 0 0
100 100 100 100 100 100 100 98 100 100 100 99 100 100 96 99 11 5 2 0 0 0 0 8 60 45 25 39 97 100 90 100 100 100 89 43 6 5 1 1 36 0 0
100 100 100 100 100 100 100 100 100 100 100 100 73 100 100 100 21 5 0 0 0 0 5 9 98 99 100 100 100 100 100 100 100 100 100 98 56 17 5 4 3 1 53
100 100 100 100 100 100 100 100 100 100 100 100 100 100 100 38 4 0 0 0 0 2 3 25 100 100 100 100 100 100 63 100 100 14 100 99 42 5 5 5 12 58 90
100 100 100 100 100 100 100 100 100 100 100 100 100 100 21 5 2 5 0 0 5 3 99 100 98 100 97 95 100 100 100 96 99 86 72 9 5 5 12 8 36 100 100
100 100 100 100 100 100 100 100 100 100 100 100 92 12 8 4 5 5 5 20 24 13 97 100 90 100 100 98 45 11 82 98 83 70 37 5 4 5 16 52 95 100 100
100 100 100 100 100 100 100 100 100 100 100 97 14 5 5 11 99 45 48 25 5 23 7 100 100 100 100 100 99 89 85 82 72 78 40 6 6 5 73 100 100 100 100
96 100 100 100 100 100 100 100 100 100 95 8 5 44 11 60 41 4 4 16 17 5 5 7 49 73 48 49 29 22 34 59 93 56 73 62 50 93 100 100 100 100 100
100 100 100 100 100 100 100 100 100 97 75 82 25 8 45 5 11 24 6 0 2 5 5 4 2 5 4 4 5 5 72 97 100 100 100 100 96 74 100 100 100 100 100
100 100 100 100 100 100 100 100 100 37 20 60 5 8 26 56 4 0 0 0 0 0 0 0 0 5 5 11 90 65 86 82 100 100 100 100 98 100 100 100 100 100 100
100 100 100 100 100 100 100 99 87 100 57 89 96 92 7 0 0 0 0 0 0 0 0 0 6 6 36 5 8 99 74 100 97 100 100 100 100 100 100 100 100 100 100
100 100 100 100 100 99 89 95 100 73 79 66 4 0 1 0 0 0 0 0 2 4 5 5 21 39 6 48 77 92 98 97 100 100 100 100 100 100 100 100 100 100 100
100 100 100 100 100 100 91 56 99 7 2 2 5 2 0 0 0 0 0 4 5 5 5 89 71 100 100 38 100 78 100 100 93 70 100 100 100 100 100 100 100 100 100
100 100 100 100 100 100 100 88 94 100 59 0 0 0 0 0 1 5 5 12 72 17 29 59 99 100 100 100 100 100 100 100 100 100 100 100 100 100 100 100 100 100 100
100 63 74 81 55 43 100 100 45 5 5 4 0 0 0 5 5 5 57 100 96 87 100 100 100 100 100 100 100 100 100 30 55 33 55 100 100 100 100 100 100 100 100
94 80 73 100 100 100 99 23 41 12 5 0 0 0 0 5 6 98 72 100 100 100 100 100 100 100 100 100 100 100 100 94 21 15 95 100 100 100 100 99 99 100 100
100 100 100 100 100 100 100 100 21 3 0 0 0 0 0 4 24 100 93 100 100 100 99 100 100 95 85 74 62 79 96 100 100 92 100 100 100 100 100 89 100 100 100
100 100 100 100 100 78 16 1 0 0 0 0 0 0 0 1 5 69 86 96 94 67 100 37 78 43 11 5 5 5 5 5 23 100 100 100 100 100 99 75 100 100 100
100 86 59 17 5 4 0 0 0 0 0 0 0 4 5 5 39 56 82 100 100 100 71 28 34 8 5 5 5 5 5 5 45 100 100 98 75 97 34 16 100 100 83
13 5 5 2 0 4 4 0 0 0 0 5 5 35 75 5 56 60 55 58 100 99 45 5 5 5 5 5 1 1 5 20 84 76 99 79 78 56 5 19 47 100 63
3 1 2 3 30 7 0 0 0 0 4 5 5 19 100 74 99 59 68 88 66 81 50 8 5 5 5 4 1 5 5 5 5 24 28 30 31 5 5 5 5 90 100
6 25 8 5 2 4 12 5 5 5 5 5 14 62 100 92 98 57 68 53 58 72 58 21 5 5 4 5 5 5 5 5 5 8 5 5 5 5 5 5 5 5 95
5 4 4 5 5 5 13 31 7 33 6 13 72 76 85 72 33 18 12 5 5 5 5 5 5 5 5 5 5 5 5 5 5 5 5 5 5 5 8 5 5 7 32